Theta_e
300 300 300 300 300 300 300 301 301 301 301 301 301 301 301 301 302 303 303 303 305 306 307 309 312 316 321 327 324 323 322 322 321 323 321 324 325 326 326 326 327 329 330 328 330
300 300 300 300 300 300 300 300 300 300 300 300 300 301 301 301 302 302 306 306 305 304 305 306 309 314 320 324 327 327 326 324 321 322 323 323 326 326 326 327 328 328 329 329 328
299 299 300 300 300 300 300 300 300 300 302 302 303 302 301 301 301 303 310 310 309 305 305 307 306 314 319 319 325 327 329 325 323 322 323 323 324 325 326 327 328 328 328 329 328
300 300 300 300 300 300 300 300 301 302 302 303 304 303 302 302 303 305 306 309 306 303 304 308 306 315 316 319 321 324 326 327 326 324 324 324 324 325 326 326 327 328 328 329 328
300 300 300 300 300 300 300 300 302 302 302 302 303 303 303 303 303 302 304 304 304 305 304 312 312 310 316 318 320 323 323 325 326 327 326 326 327 327 328 327 328 329 328 327 326
300 300 300 300 301 301 301 301 302 302 302 303 305 305 304 305 304 304 308 308 307 308 308 305 314 311 312 315 319 322 323 322 323 328 329 329 329 329 329 328 327 327 327 327 326
300 300 300 301 301 301 302 302 303 304 304 305 306 305 304 303 305 304 309 309 308 308 307 308 305 312 312 313 314 318 320 320 325 324 326 325 328 328 326 325 325 326 326 326 326
300 300 301 301 301 302 302 303 303 304 304 306 307 305 305 304 307 308 308 307 308 307 308 307 305 305 312 313 314 316 317 320 321 319 322 323 327 327 326 325 325 325 326 325 325
300 300 301 301 301 302 303 302 302 304 305 306 306 305 306 306 308 307 307 307 307 308 308 306 305 305 311 314 314 316 319 319 320 320 320 321 325 325 324 323 325 325 325 325 325
300 301 300 301 302 302 302 302 303 304 305 305 305 307 306 306 307 307 308 307 307 307 308 307 307 309 311 314 316 316 317 318 320 320 320 321 323 324 323 323 324 324 324 324 324
299 301 301 301 302 302 304 303 304 305 305 305 305 306 306 307 307 307 308 307 307 306 309 308 307 309 311 313 314 315 316 317 318 319 320 321 323 323 322 322 322 323 323 324 323
298 300 302 301 302 306 305 305 306 306 307 305 305 305 306 306 306 308 307 307 307 307 307 308 308 308 309 311 313 314 315 317 317 317 319 321 322 322 320 321 322 323 323 323 323
298 301 302 301 302 305 306 306 307 307 306 305 304 305 307 307 307 308 308 308 308 308 307 308 308 308 308 310 312 313 314 315 317 316 317 317 320 320 320 319 319 319 319 319 319
299 303 305 303 303 305 307 307 307 307 307 305 307 307 306 307 307 308 309 309 308 308 307 308 308 307 308 309 311 313 313 314 314 316 319 317 320 321 321 320 320 319 318 319 318
300 305 304 302 306 308 307 307 307 306 305 306 307 306 307 307 307 309 308 310 311 309 305 308 306 306 308 309 310 311 312 314 314 315 316 316 316 318 318 318 318 320 318 317 317
303 307 305 308 308 308 307 307 306 307 305 307 307 307 307 307 307 307 309 310 309 309 309 306 307 306 307 309 309 311 310 311 312 313 315 316 316 317 318 318 318 318 316 316 316
303 308 308 308 308 307 307 306 307 307 306 307 306 307 307 308 307 307 309 311 313 313 308 308 307 307 306 306 307 308 311 312 313 313 314 314 315 316 317 316 315 317 316 316 317
305 309 308 308 307 307 307 305 308 308 308 307 307 307 308 307 307 307 308 311 311 309 313 310 308 308 307 307 307 308 310 311 311 313 313 312 314 315 316 316 316 315 316 316 317
305 309 308 308 307 307 305 309 307 307 307 307 307 308 307 307 307 307 307 310 311 310 312 313 310 310 309 308 308 307 308 309 309 311 312 313 313 314 314 315 316 316 317 318 319
304 309 309 308 307 307 307 307 307 306 306 307 308 308 308 307 307 307 307 310 308 309 310 311 311 310 310 310 308 309 309 308 309 310 310 313 313 314 317 317 316 316 316 317 323
302 309 308 308 307 306 309 307 306 306 307 307 308 309 308 307 307 307 308 308 309 308 309 311 310 310 309 309 309 309 309 309 310 310 312 313 314 316 317 317 316 316 315 316 321
301 310 307 306 308 301 307 305 305 307 307 307 308 309 308 308 307 307 308 308 308 308 308 310 312 311 309 309 309 310 309 310 311 310 310 311 312 316 314 314 315 315 315 315 319
302 304 306 304 308 306 304 305 305 307 307 307 308 307 307 307 308 308 307 307 307 308 309 310 310 311 309 312 311 310 310 309 310 313 313 312 311 313 314 315 315 315 315 315 317
301 306 302 302 302 303 304 305 306 306 306 307 307 307 308 307 307 308 307 306 307 307 308 309 310 310 310 310 310 311 311 311 311 312 312 313 313 313 314 314 315 315 315 315 315
303 302 301 304 302 302 303 304 306 308 307 306 308 307 308 310 308 308 307 307 307 307 308 310 310 310 309 310 310 310 311 311 311 311 313 312 312 313 314 315 315 314 314 314 314
303 302 302 302 300 303 303 305 306 307 305 306 307 307 307 308 308 308 307 307 309 308 308 309 310 310 310 308 308 309 309 309 310 310 312 312 312 312 312 312 313 313 313 315 316
303 302 301 302 302 302 304 304 304 303 305 306 306 307 307 307 306 306 306 306 307 308 309 309 311 310 308 307 308 309 310 310 310 311 312 312 312 312 312 313 313 313 314 316 317
Wind_Speed
12 12 12 12 12 12 12 12 13 14 15 17 18 19 19 19 18 18 20 12 16 20 18 18 11 11 15 11 14 10 8 13 17 11 7 4 8 2 4 7 7 3 7 9 10
15 16 15 15 15 14 14 13 14 15 16 17 19 20 20 22 23 16 6 9 3 10 19 21 17 14 11 11 11 12 11 20 7 14 7 13 4 6 5 8 8 5 9 3 7
18 18 19 19 19 18 16 15 14 13 15 17 19 20 20 21 17 4 4 2 10 17 10 14 19 14 17 11 16 12 19 20 18 22 19 22 21 12 11 14 15 6 7 13 15
20 20 21 21 22 22 20 18 16 16 15 15 17 19 21 18 4 2 8 12 18 17 12 7 18 11 12 19 22 15 24 27 18 16 13 20 25 17 19 29 14 19 20 22 20
20 20 20 20 21 19 17 17 17 18 19 19 19 18 19 13 8 7 14 22 22 17 9 6 11 14 16 14 22 24 22 16 26 17 23 19 23 19 22 29 22 25 27 25 24
19 19 19 19 20 19 15 13 14 18 19 17 16 18 15 5 12 16 16 9 12 14 11 11 7 13 13 19 21 18 24 29 20 18 26 22 29 22 19 21 20 21 27 29 28
19 19 19 20 21 20 17 14 17 19 17 16 16 18 15 6 11 19 9 16 18 15 19 13 16 11 4 15 23 29 17 10 23 29 16 10 27 30 28 26 31 25 28 30 27
19 19 18 18 18 18 15 14 18 17 16 13 14 14 9 12 18 17 17 17 19 15 16 13 15 12 17 10 14 15 20 20 24 13 13 18 31 27 18 21 28 31 30 23 24
22 21 19 17 18 17 15 18 20 17 12 14 15 8 9 14 17 23 21 18 16 12 10 10 4 11 9 13 11 18 19 28 27 22 13 19 34 24 26 23 26 25 26 24 22
24 23 20 17 17 16 17 19 15 11 6 10 7 6 4 13 19 23 16 13 17 12 1 2 6 10 14 16 22 26 27 27 24 17 20 19 33 19 16 15 19 22 23 24 27
26 24 21 16 14 12 17 15 7 2 11 8 9 8 21 17 24 20 16 10 9 8 10 6 9 19 25 24 23 16 20 21 19 14 15 25 31 26 23 27 28 29 30 32 34
26 25 20 14 10 7 12 7 5 7 11 16 15 20 19 18 10 16 7 4 4 11 6 6 17 19 16 17 23 22 14 14 9 6 11 19 25 22 13 18 26 28 32 31 34
27 25 19 13 8 4 5 6 7 9 4 10 6 10 11 13 10 11 5 7 10 15 17 17 14 9 17 19 19 23 22 10 5 3 9 9 20 21 17 22 27 28 31 30 33
28 25 20 9 2 5 2 9 14 4 3 3 2 0 9 13 5 14 9 8 8 13 15 14 14 15 12 21 17 19 17 18 14 6 9 6 14 17 17 18 17 24 28 32 28
26 19 13 3 1 5 6 10 10 3 5 8 2 7 19 5 13 2 12 5 12 16 7 13 10 16 19 12 16 14 10 15 17 16 12 18 9 18 15 21 23 22 29 30 33
22 11 8 6 6 8 11 11 6 3 3 3 6 11 15 13 16 9 7 9 15 10 16 15 11 5 7 17 12 18 11 5 5 7 13 17 11 18 19 21 19 18 24 23 20
15 4 6 7 8 12 14 4 2 3 5 5 8 11 15 8 12 12 12 7 4 6 9 12 17 9 8 5 5 9 18 8 10 10 16 9 12 19 7 4 7 3 7 17 17
10 2 4 6 9 14 12 1 3 1 3 7 7 15 4 9 11 13 9 6 5 7 2 6 10 7 11 14 12 13 14 10 15 11 13 11 13 8 14 16 16 10 7 12 16
8 3 3 6 9 12 5 1 1 2 3 7 13 4 3 5 7 9 9 6 1 5 6 4 2 15 3 2 12 7 9 7 2 1 7 10 16 16 17 17 16 4 9 17 22
10 4 2 7 12 10 2 1 3 3 5 4 4 2 6 9 9 11 6 3 5 9 6 4 4 6 12 8 7 6 9 9 6 6 8 8 15 9 7 6 2 2 14 21 26
9 1 6 7 10 5 2 3 4 7 4 3 4 7 7 10 7 8 6 9 7 12 12 7 3 3 5 3 2 5 5 7 7 8 4 3 3 4 8 9 8 9 16 21 26
9 1 6 8 3 2 2 6 6 6 1 5 6 9 7 7 9 7 5 6 11 13 10 6 4 5 5 5 3 7 3 4 9 19 11 7 5 5 11 9 10 14 22 27 25
9 5 5 7 2 2 4 5 5 5 6 4 5 4 5 7 5 5 9 5 11 5 4 7 2 6 3 5 4 1 2 6 5 5 15 15 8 8 4 11 17 22 27 31 27
8 3 5 6 4 3 5 4 5 9 10 3 9 8 3 8 10 9 15 9 9 15 19 12 4 9 8 7 7 8 8 7 5 9 15 20 20 25 22 22 22 28 28 29 26
9 3 4 5 2 7 4 3 9 5 4 7 4 6 8 6 15 16 6 8 12 17 15 4 7 10 12 14 14 16 17 16 15 17 14 18 20 24 22 18 22 30 29 31 29
5 4 5 8 10 7 4 3 8 4 5 8 7 13 14 12 17 22 21 15 8 6 8 5 5 3 9 15 17 18 19 19 22 19 23 24 26 20 31 33 32 31 30 28 26
8 4 3 5 4 4 2 5 9 16 11 14 14 14 15 18 20 29 32 31 17 4 4 4 5 4 6 4 9 11 18 21 19 17 18 21 20 19 25 25 24 29 26 26 26
Wind_Direction
13 9 4 360 355 351 349 346 342 338 335 333 329 327 329 326 321 309 298 271 262 256 247 251 228 202 191 199 203 200 228 237 230 213 228 238 229 190 288 278 285 189 77 58 58
7 5 1 358 354 349 347 346 342 339 337 334 330 330 335 331 326 321 283 275 293 290 260 242 232 210 203 207 203 204 228 234 223 224 221 246 253 305 303 291 279 268 185 47 51
4 2 360 357 354 351 347 344 341 342 342 341 338 335 337 335 332 25 37 22 320 327 332 245 228 206 216 203 205 216 231 232 231 225 223 247 260 242 268 271 257 270 305 313 313
2 359 356 353 350 346 343 341 341 342 342 342 340 341 340 339 360 347 315 294 297 313 314 299 214 196 223 216 210 238 232 237 245 237 230 240 252 253 248 252 259 285 291 292 285
359 355 352 350 349 347 341 338 337 335 337 335 335 343 342 321 292 296 301 299 291 290 291 276 232 221 224 221 226 232 237 242 239 247 240 255 251 253 248 261 263 273 279 275 277
355 350 348 348 355 356 349 344 340 331 332 335 344 349 338 312 337 319 323 339 322 331 320 257 239 238 258 239 223 234 236 243 242 234 246 255 260 252 255 255 260 266 270 272 274
350 347 345 346 352 355 352 351 342 334 335 337 345 341 319 331 353 336 307 325 329 327 336 304 241 246 283 252 245 242 249 238 232 231 241 238 272 243 246 256 261 261 269 272 270
349 345 342 341 343 348 347 343 336 326 320 327 334 334 284 338 344 347 330 313 306 306 324 327 230 260 231 270 246 227 234 242 229 205 226 203 256 263 240 245 257 268 268 263 270
352 350 347 342 342 346 345 339 332 326 337 339 333 330 293 338 329 333 326 309 301 283 316 317 252 225 221 228 234 228 229 226 237 212 202 196 251 252 262 251 253 248 255 264 274
351 350 351 344 341 344 341 338 333 337 343 325 309 316 284 315 318 317 327 304 288 272 231 124 211 223 221 204 217 216 226 233 224 214 211 217 249 244 259 264 263 272 278 281 278
346 348 345 341 338 345 343 3 9 303 303 262 277 266 285 320 312 326 321 301 276 264 252 195 220 224 225 227 243 261 247 242 247 229 213 223 242 246 240 254 258 262 268 270 272
342 341 340 336 333 6 5 26 16 319 306 304 274 270 301 307 295 330 331 301 285 271 219 216 233 246 254 254 236 241 251 249 231 225 227 238 248 249 243 250 254 258 263 269 275
340 335 333 329 309 343 6 12 347 320 259 297 270 278 325 319 298 313 326 300 280 274 249 242 257 244 234 244 232 229 232 216 221 235 250 274 261 251 246 250 255 257 261 266 265
339 332 325 324 288 320 328 348 331 292 281 283 283 27 328 320 258 315 325 299 258 265 258 246 242 237 254 226 236 234 224 228 239 260 232 200 267 245 243 252 250 257 258 261 269
341 340 338 28 40 350 326 323 321 169 303 342 344 318 333 334 310 281 343 336 280 262 246 231 246 224 220 234 215 247 204 206 214 230 250 241 269 261 252 258 257 257 265 271 268
345 1 24 48 21 348 333 325 145 226 268 349 335 339 349 330 332 318 297 5 285 273 252 268 262 291 253 217 211 213 228 250 232 224 234 234 236 268 254 257 260 261 266 270 282
346 23 48 28 355 340 341 140 238 226 353 340 329 336 329 314 324 333 326 354 6 299 257 235 230 246 256 241 167 181 187 197 219 216 236 204 217 243 244 287 236 257 307 295 303
344 91 49 24 354 343 343 197 242 54 296 333 327 322 312 353 329 325 319 344 63 326 6 290 222 226 207 230 209 198 200 205 217 209 229 203 227 244 237 267 274 285 302 312 325
345 163 62 10 355 342 336 69 303 274 309 318 319 304 306 329 328 327 311 311 123 350 340 340 313 325 116 224 204 169 204 225 265 71 217 194 249 279 262 274 271 263 7 352 343
355 181 32 354 343 344 57 303 273 257 309 306 287 282 307 330 321 334 303 349 357 11 338 328 294 145 306 318 186 229 186 195 207 200 212 213 243 235 117 80 318 138 11 355 353
354 179 352 346 340 27 67 284 288 288 285 279 280 285 282 316 309 312 291 317 358 350 347 327 290 177 251 197 338 195 217 222 243 235 240 239 209 229 236 101 58 31 5 355 355
356 272 2 356 43 44 341 316 304 288 299 292 266 275 283 315 301 293 267 303 336 329 328 344 307 285 262 291 294 284 287 280 230 218 237 281 277 111 112 79 22 356 351 354 355
349 307 348 3 54 355 327 292 272 294 318 317 288 277 288 296 297 261 285 286 335 308 352 356 344 311 296 149 94 211 207 246 254 283 245 234 223 185 255 306 337 341 339 344 344
352 334 353 53 85 20 339 323 313 274 277 271 283 280 280 281 272 274 280 295 279 293 309 303 248 254 271 324 328 294 289 279 269 253 250 243 257 267 284 302 318 324 330 331 330
12 35 12 322 352 326 286 286 286 301 328 325 271 238 313 285 299 278 286 312 289 291 292 253 246 236 260 271 276 272 273 271 254 253 253 264 258 270 282 300 304 309 314 317 319
22 354 323 292 299 299 289 264 290 331 296 291 250 295 294 290 288 291 293 282 263 222 241 246 268 240 258 266 265 268 262 256 255 255 255 260 261 267 283 284 284 288 301 307 308
338 291 262 287 293 312 299 323 308 321 289 257 295 298 294 290 287 284 282 275 252 230 245 247 233 224 263 313 311 269 250 244 253 260 262 261 267 258 263 268 270 282 288 293 296